星链-34314 (STARLINK-34314)

导读

STARLINK-34314是美国太空探索技术公司(SpaceX)星链(Starlink)星座的一颗卫星,于2025年5月27日由美国发射升空。作为星链互联网星座的组成部分,它主要为全球范围内用户提供低延迟、高速率的宽带互联网接入服务,运行在近地轨道,进一步扩充了星链星座的卫星规模,提升了星座的覆盖能力与服务稳定性。

Basic Information
目录编号:
64146
目录名称:
STARLINK-34314
国际标识:
2025-112A
轨道中心:
EARTH
卫星名称:
星链-34314
卫星全名:
星链-34314 (STARLINK-34314)
卫星状态:
在轨 (已飞行383 天)
发射日期:
2025-05-27 UTC
国别 :
美国 (US)
星等 :
--
Orbit Information
数据来源 国际轨道数据 AOE轨道数据
星历时间 2026-06-14T00:49:44+0800
8小时前
查看轨道信息
2026-06-11T00:00:00+0800
3天前
查看轨道信息
半长轴 6927.616km 6927.662km
偏心率 0.0001398 0.0001884
轨道倾角 97.363° 97.377°
近地点辐角 150.509° 145.529°
升交点赤经 215.255° 212.360°
平近点角 209.621° 336.733°
近地点 548.51km 548.219km
远地点 550.448km 550.831km
周期 95.639分钟 95.640分钟
每日圈数 15.056606 15.056458
Detailed Information
固有亮度:
5
最大亮度:
2.5
卫星平台:
Starlink V1.0
覆盖范围:
全球
运营商:
太空探索技术公司
运营商所在国:
美国
制造商(研发单位):
太空探索技术公司
制造商所在国:
美国
使用方式:
暂无
Satellite Introduction
Starlink 计划是 SpaceX 推出的全球卫星互联网项目,通过发射低轨道卫星,为全球尤其是偏远地区提供高速、低延迟的互联网服务。自 2019 年起,Starlink 已部署数千颗卫星,旨在缩小全球数字鸿沟,推动互联网普及。该项目还为军事、航空等行业提供通信支持,带来广泛经济效益。
2D Orbit Map
3D Orbit Map
Orbit Altitude Analysis Chart
Orbit Inclination Analysis Chart
Orbit Comprehensive Analysis Chart
View Comprehensive Chart